Regional Weather Roundup
Issued by NWS Cleveland, OH

Home | Current Version | Previous Version | Graphics & Text | Print | Product List | Glossary On
Versions: 1 2 3 4 5 6 7 8 9 10 11 12 13 14 15 16 17 18 19 20 21 22 23 24 25 26 27 28 29 30 31 32 33 34 35 36 37 38 39 40 41 42 43 44 45 46 47 48 49 50
311
ASUS41 KCLE 022110
RWRCLE
OHIO REGIONAL WEATHER ROUNDUP
NATIONAL WEATHER SERVICE CLEVELAND, OH
500 PM EDT MON MAY 02 2016

NOTE: "FAIR" INDICATES FEW OR NO CLOUDS BELOW 12,000 FEET WITH NO
SIGNIFICANT WEATHER AND/OR OBSTRUCTIONS TO VISIBILITY.

OHZ001>008-015>018-024>027-034-035-043-044-022200-
   NORTHWEST OHIO

CITY           SKY/WX    TMP DP  RH WIND       PRES   REMARKS
DEFIANCE       CLOUDY    52  47  83 N6        30.00S
FINDLAY        CLOUDY    54  44  69 NE10      29.97F
TOLEDO EXPRESS CLOUDY    51  45  79 NE6       30.00F
TOLEDO EXEC    CLOUDY    53  45  74 NE9       30.00F
LIMA           CLOUDY    51  47  86 NE7       29.98F
$$

OHZ009>014-019>023-028>033-038-089-022200-
   NORTHEAST OHIO

CITY           SKY/WX    TMP DP  RH WIND       PRES   REMARKS
CLE-HOPKINS    CLOUDY    50  44  80 N9        30.02S
CLE-LAKEFRONT  CLOUDY    49  45  86 N12       29.99S
CUY CO. ARPT   CLOUDY    52  45  76 NE7       30.00F
LORAIN-ELYRIA  CLOUDY    50  43  77 N6        29.99F
ASHTABULA      PTSUNNY   49  43  80 NE5       29.99S
AKRON-CANTON   CLOUDY    53  45  74 N7        29.97F
WOOSTER        CLOUDY    51  46  83 N9        29.98S
MANSFIELD      CLOUDY    51  46  83 NE7       29.96F
YOUNGSTOWN     CLOUDY    50  44  80 N7        29.97R
$$

OHZ042-051>053-060>062-070>072-077>081-022200-
  SOUTHWEST OHIO

CITY           SKY/WX    TMP DP  RH WIND       PRES   REMARKS
CINC-COVINGTON CLOUDY    63  51  65 W7        29.92F
CINC-LUNKEN    CLOUDY    64  52  64 SW9       29.92F
HAMILTON       CLOUDY    65  51  60 VRB6      29.93F
DAYTON         CLOUDY    56  51  84 N13       29.95F
WRIGHT-PAT AFB CLOUDY    59  53  80 N9        29.94F
DAYTON GENERAL CLOUDY    60  51  72 N8        29.92F
WILMINGTON     CLOUDY    62  54  74 N8        29.92S
$$

OHZ036-037-039>041-045>050-054>059-063>069-073>076-082>088-022200-
  CENTRAL AND SOUTHEAST OHIO

CITY           SKY/WX    TMP DP  RH WIND       PRES   REMARKS
COLUMBUS       CLOUDY    57  51  80 N10       29.93F
OSU AIRPORT    CLOUDY    56  50  80 N12       29.95F
BOLTON FIELD   CLOUDY    57  54  88 N9        29.94F
RICKENBACK AFB CLOUDY    60  52  73 N6        29.93F
NEWARK         CLOUDY    61  52  72 N8        29.93S
MARION         CLOUDY    52  47  83 NE13      29.97F
LANCASTER      CLOUDY    63  53  70 NW8       29.93F
ZANESVILLE     CLOUDY    63  52  67 VRB7G17   29.92F
NEW PHILLY     CLOUDY    56  48  74 N7        29.95F
$$




USA.gov is the U.S. government's official web portal to all federal, state and local government web resources and services.